Tracking 17855 objects as of 24-September-2016
HD Live streaming from Space Station
objects crossing your sky now

H-1 R/B(1)

Track H-1 R/B(1) now!
10-day predictions


NORAD ID: 20230
Int'l Code: 1989-070B
Perigee: 189.8 km
Apogee: 6,230.2 km
Inclination: 28.2 °
Period: 155.6 minutes
Semi major axis: 9580 km
RCS: 2.9914 m2 (large)
Launch date: September 5, 1989
Source: Japan (JPN)
Launch site: TANEGASHIMA SPACE CENTER (TNSTA)

Note: This is a ROCKET BODY
Your satellite tracking list
Your tracking list is empty





NASA's NSSDC Master Catalog

Two Line Element Set (TLE):
1 20230U 89070B   16268.06402309  .00185941 -12633-5  87469-3 0  9994
2 20230  28.2461 353.0264 3152277 260.2521  63.3366  9.25738997484642
Source of the keplerian elements: AFSPC

N2YO: 435